sat.trackr.live / text

‹ back to catalog

STARLINK-31552

NORAD 59356 · 2024-060J

PAYLOAD ACTIVE UNKNOWN

§ Identity

Operator
Country
US
Launch date
2024-03-31
Launch site
AFETR
Launch vehicle
Mass (kg)
RCS (m²)

Purposes: comms

External: N2YO · Heavens-Above · Gunter

§ Orbital elements

Epoch: 2026-09-20T23:09:17.365248Z

Period
94.27 min
Inclination
43.0007°
Eccentricity
0.0000919
Mean motion
15.27578464 rev/d
Perigee alt
482.4 km
Apogee alt
483.7 km
Semi-major
6,861.2 km
B*
-2.0516e-6
RAAN
237.4021°
Arg perigee
276.5767°
Mean anomaly
83.4980°
Rev number
13,992

§ Raw data

STARLINK-315521 59356U 24060J   26263.96478432 -.00000318  00000+0 -20516-5 0  99942 59356  43.0007 237.4021 0000919 276.5767  83.4980 15.27578464139927

JSON: /api/v1/satellites/59356 · /tle

For live sub-satellite position, see the globe view (requires WebGL).

§ Visibility from observer

Set your observer location to see the next 7 days of passes ≥ 10°. The values pass through the URL so the page stays shareable.

No JS? Fill the form by hand. The geolocation button needs JavaScript.